[[{"header":{"parameterUnit":"m.s-1","parameterCategory":1,"la1":30.2992,"la2":30.254,"lo1":-89.0895,"lo2":-89.0443,"dy":0.0025,"dx":0.0025,"nx":19,"ny":19,"refTime":"2026-05-05T21:00:00:Z","depth":0,"parameterNumber":2,"parameterNumberName":"U-component_of_WINDS"},"data":[0,0,0,2.6513,2.6516,2.6662,2.6663,2.6852,2.6854,0,0,0,0,0,0,0,0,0,0,0,2.647,2.6471,2.6512,2.6516,2.6662,2.6663,2.6852,2.6854,0,0,0,0,0,0,0,0,0,0,0,2.6469,2.6471,2.6472,2.6517,2.6662,2.6663,2.6851,2.674,0,0,0,0,0,0,0,0,0,0,2.6598,2.6559,2.647,2.6473,2.6518,2.6662,2.6663,2.6735,2.6747,2.6787,0,2.682,0,2.684,2.6866,2.6867,0,0,0,2.6516,2.6549,2.6587,2.6473,2.6519,2.6661,2.6596,2.6742,2.6756,2.6803,2.6823,2.683,2.6843,2.6868,2.6868,2.7092,2.7093,0,0,2.6508,2.6497,2.6578,2.6596,2.6573,2.6591,2.6601,2.675,2.6772,2.6824,2.6835,2.6846,2.6869,2.687,2.7091,2.7093,0,0,0,2.6485,2.6491,2.6526,2.6589,2.6615,2.6596,2.6606,2.6765,2.6778,2.6837,2.6848,2.687,2.6872,2.709,2.7092,2.7132,0,0,0,2.648,2.6478,2.6523,2.6517,2.6612,2.6692,2.6618,2.6767,2.6785,2.6847,2.687,2.6874,2.7089,2.7091,2.7129,2.7153,0,0,0,2.646,2.6475,2.6496,2.6516,2.6578,2.6689,2.671,2.6771,2.6792,2.6867,2.6875,2.7088,2.7091,2.7125,2.7148,2.7209,0,0,0,2.6436,2.653,2.6497,2.6607,2.6577,2.6713,2.671,2.6812,2.6881,2.6871,2.7089,2.7092,2.7124,2.7145,2.7205,2.7258,2.7279,0,0,2.6549,2.6544,2.6609,2.6583,2.6722,2.6692,2.6837,2.6912,2.693,2.7037,2.7043,2.713,2.7148,2.7208,2.7399,2.7415,0,0,0,2.6641,2.6688,2.6728,2.6792,2.6851,2.6904,2.6957,2.6985,2.7077,2.6982,2.7169,2.718,2.7216,2.7241,2.7255,2.7287,2.7103,2.7103,2.7103,2.6784,2.6802,2.6912,2.6947,2.701,2.7065,2.7118,2.7165,2.7165,2.7208,2.724,2.7354,2.7384,2.7394,2.7427,2.727,2.727,2.727,2.727,2.6951,2.7021,2.7018,2.7123,2.7142,2.7232,2.7288,2.7285,2.7372,2.7331,2.7364,2.7318,2.7411,2.7441,2.7273,2.7273,2.7272,2.7272,2.7272,2.7047,2.7083,2.7115,2.7211,2.7283,2.7316,2.74,2.7414,2.7428,2.746,2.7496,2.7495,2.7496,2.7476,2.7476,2.7477,2.7477,2.7477,2.7478,2.7133,2.7168,2.7236,2.7306,2.735,2.741,2.7466,2.751,2.7562,2.7566,2.7567,2.7562,2.7417,2.738,2.7484,2.7483,2.7482,2.7481,2.7481,2.7295,2.7261,2.7366,2.741,2.7495,2.7566,2.7583,2.7671,2.771,2.7751,2.774,2.763,2.7626,2.7615,2.7585,2.7735,2.7735,2.7735,2.7735,2.7376,2.7375,2.7486,2.7555,2.7625,2.7651,2.7771,2.7816,2.7857,2.7882,2.7863,2.7824,2.7812,2.7815,2.78,2.7772,2.7966,2.7967,2.7967,2.7477,2.7484,2.7582,2.7621,2.7689,2.7747,2.7859,2.794,2.798,2.7976,2.7903,2.7893,2.783,2.7809,2.7803,2.7779,2.7728,0,0]},{"header":{"parameterUnit":"m.s-1","parameterCategory":1,"la1":30.2992,"la2":30.254,"lo1":-89.0895,"lo2":-89.0443,"dy":0.0025,"dx":0.0025,"nx":19,"ny":19,"refTime":"2026-05-05T21:00:00:Z","depth":0,"parameterNumber":3,"parameterNumberName":"V-component_of_WINDS"},"data":[0,0,0,2.3668,2.3671,2.383,2.383,2.4028,2.4029,0,0,0,0,0,0,0,0,0,0,0,2.3618,2.362,2.3667,2.3671,2.3829,2.383,2.4027,2.4029,0,0,0,0,0,0,0,0,0,0,0,2.3618,2.3619,2.3621,2.3672,2.3829,2.383,2.4027,2.3909,0,0,0,0,0,0,0,0,0,0,2.3756,2.3708,2.3619,2.3621,2.3673,2.3829,2.383,2.3903,2.3916,2.3954,0,2.3987,0,2.4011,2.4042,2.4043,0,0,0,2.3673,2.3698,2.3742,2.3621,2.3674,2.3829,2.3759,2.3911,2.3925,2.3971,2.399,2.3997,2.4015,2.4043,2.4044,2.4257,2.4258,0,0,2.3664,2.3646,2.3732,2.3752,2.3728,2.3753,2.3763,2.392,2.3939,2.3991,2.4002,2.4018,2.4045,2.4046,2.4256,2.4257,0,0,0,2.3638,2.3639,2.368,2.3744,2.3773,2.3758,2.377,2.3932,2.3947,2.4004,2.402,2.4046,2.4048,2.4255,2.4256,2.4284,0,0,0,2.3633,2.3624,2.3677,2.3667,2.377,2.3855,2.3778,2.3936,2.3954,2.4019,2.4046,2.405,2.4254,2.4256,2.4281,2.4301,0,0,0,2.3609,2.3621,2.3644,2.3665,2.3733,2.3852,2.3877,2.3941,2.3964,2.4043,2.4051,2.4253,2.4255,2.4279,2.4296,2.4351,0,0,0,2.3578,2.3666,2.3644,2.3748,2.3732,2.3869,2.3876,2.3979,2.405,2.4047,2.4254,2.4256,2.4278,2.4294,2.4348,2.4394,2.4412,0,0,2.3679,2.3677,2.374,2.3725,2.3861,2.3846,2.3986,2.4069,2.4092,2.42,2.4206,2.4282,2.4296,2.4351,2.4515,2.4528,0,0,0,2.3766,2.3811,2.3851,2.3918,2.3983,2.4041,2.4103,2.4134,2.4226,2.4144,2.4317,2.4326,2.4359,2.4382,2.4393,2.4422,2.4266,2.4266,2.4265,2.3883,2.3909,2.4014,2.406,2.4124,2.4188,2.4243,2.4294,2.4301,2.4342,2.4374,2.447,2.4496,2.4505,2.4535,2.44,2.44,2.44,2.44,2.4033,2.4101,2.4108,2.4213,2.424,2.4328,2.4392,2.4395,2.448,2.4448,2.4478,2.4442,2.452,2.4547,2.4403,2.4402,2.4402,2.4402,2.4402,2.4112,2.4149,2.4185,2.4284,2.4357,2.4399,2.4481,2.4503,2.4523,2.4553,2.4589,2.4589,2.4591,2.4568,2.4569,2.4569,2.457,2.457,2.457,2.4181,2.422,2.4287,2.4363,2.4408,2.4471,2.4535,2.458,2.4635,2.4644,2.4645,2.4648,2.4522,2.449,2.4575,2.4574,2.4574,2.4573,2.4573,2.4324,2.4295,2.4398,2.4444,2.4534,2.4605,2.4631,2.4721,2.4761,2.4801,2.4798,2.4701,2.4701,2.4692,2.4666,2.4792,2.4792,2.4792,2.4792,2.4391,2.4393,2.4503,2.4575,2.4647,2.4681,2.4796,2.4846,2.4893,2.4919,2.4904,2.4871,2.4861,2.4867,2.4854,2.483,2.4994,2.4995,2.4995,2.448,2.449,2.4584,2.4631,2.4703,2.4765,2.4873,2.4954,2.5002,2.5004,2.494,2.4932,2.4879,2.486,2.4861,2.484,2.4797,0,0]}]]